Regional Weather Roundup
Issued by NWS Charleston, SC

Current Version | Previous Version | Text Only | Print | Product List | Glossary Off
Versions: 1 2 3 4 5 6 7 8 9 10 11 12 13 14 15 16 17 18 19 20 21 22 23 24 25 26 27 28 29 30 31 32 33 34 35 36 37 38 39 40 41 42 43 44 45 46 47 48 49 50
000 ASUS42 KCHS 270413 RWRCHS REGIONAL WEATHER ROUNDUP NATIONAL WEATHER SERVICE CHARLESTON SC 1200 AM EDT SAT AUG 27 2016 NOTE: "FAIR" INDICATES FEW OR NO CLOUDS BELOW 12,000 FEET WITH NO SIGNIFICANT WEATHER AND/OR OBSTRUCTIONS TO VISIBILITY. NOT ALL STATIONS ARE QUALITY CONTROLLED. USE DATA WITH CAUTION... ESPECIALLY DEWPOINT OBSERVATIONS. SCZ027-030-031-034>040-042>050-270500- ...SOUTHEAST SOUTH CAROLINA... CITY SKY/WX TMP DP RH WIND PRES REMARKS N CHARLESTON PTCLDY 79 71 76 SE5 30.08S WATERFRONT PRK N/A 82 74 77 E8 30.05F MOUNT PLEASANT FAIR 75 73 94 CALM 30.08S JOHNS ISLAND FAIR 75 73 94 CALM 30.08S PINOPOLIS N/A 79 73 83 CALM 30.02R MONCKS CORNER FAIR 72 70 94 CALM 30.09R SUMMERVILLE FAIR 73 73 100 CALM 30.10R BEAUFORT MCAS CLEAR 77 72 84 CALM 30.08S BEAUFORT ARPT FAIR 75 72 88 CALM 30.07F HILTON HEAD IS CLEAR 79 70 73 CALM 30.08F WALTERBORO CLEAR 77 77 100 CALM 30.10R ALLENDALE FAIR 77 72 83 CALM 30.09R ...SOUTHERN MIDLANDS AND PEE DEE... CITY SKY/WX TMP DP RH WIND PRES REMARKS GEORGETOWN FAIR 72 70 94 CALM 30.10R KINGSTREE FAIR 73 68 83 CALM 30.09S ORANGEBURG CLEAR 78 72 81 CALM 30.10R BARNWELL NOT AVBL AIKEN FAIR 77 70 78 S5 30.14R MANNING FAIR 73 70 88 CALM 30.10R COLUMBIA CLEAR 83 71 67 S3 30.09R SUMTER CLEAR 79 71 76 S3 30.07S FLORENCE CLEAR 79 72 79 S3 30.10R MYRTLE BEACH CLEAR 81 66 61 SE8 30.10F N MYRTLE BEACH CLEAR 81 72 74 SE3 30.07F $$ GAZ063-065-086>088-099>101-113>116-118-119-134>141-150-270500- ...SOUTHEAST GEORGIA... CITY SKY/WX TMP DP RH WIND PRES REMARKS SAVANNAH ARPT CLEAR 75 69 81 E3 30.08S HUNTER AAF CLEAR 76 73 90 E3 30.05F FORT STEWART CLEAR 71 68 91 CALM 30.05F STATESBORO CLEAR 77 73 88 CALM 30.08F SYLVANIA NOT AVBL CLAXTON FAIR 73 72 98 CALM 30.08F ...CSRA...CENTRAL AND FAR SOUTHEAST GEORGIA... CITY SKY/WX TMP DP RH WIND PRES REMARKS THOMSON PTCLDY 80 76 87 MISG 30.14R AUGUSTA-BUSH CLEAR 75 73 93 SE3 30.08R AUGUSTA-DANIEL CLEAR 83 71 67 S6 30.11R SWAINSBORO FAIR 79 70 73 SE3 30.10S VIDALIA CLEAR 77 73 88 CALM 30.09S EASTMAN FAIR 79 61 53 SE3 30.11R HAZLEHURST FAIR 78 71 79 CALM 30.07S ALMA CLEAR 69 67 93 CALM 30.07S WAYCROSS N/A 73 72 96 E3 30.07S JESUP FAIR 72 72 100 CALM 30.07F BAXLEY FAIR 73 73 100 CALM 30.07F BRUNSWICK MOCLDY 72 72 100 CALM 30.07F SAINT SIMONS PTCLDY 80 69 69 E6 30.06S $$ SCZ027-028-034-036>038-045-046-048>050-GAZ119-141-270500- ...LAKE AND SUPPLEMENTAL COASTAL OBSERVATIONS... STATION/POSITION TIME TEMP WIND PRES WAVE SWELL AIR SEA DIR/SP/G HT/PER HT/PER/DIR (UTC) (F) (DEG/KT/KT) (MB) (FT/S) (FT/S/D) WINYAH BAY 0245 81 110/ 5 1018.0 LAKE MURRAY 0300 86 180/ 6/ 7 1018.3R ACE BASIN NERRS NOT AVBL FORT PULASKI 0300 81 86 110/ 7/ 9 1018.9R SAPELO ISLAND 0300 75 110/ 2 1018.0S $$ ANZ835-935-AMZ111-154-330-350-352-354-370-450-454-472-270500- ...C-MAN AND BUOY OBSERVATIONS... STATION/POSITION TIME TEMP WIND PRES WAVE SWELL AIR SEA DIR/SP/G HT/PER HT/PER/DIR (UTC) (F) (DEG/KT/KT) (MB) (FT/S) (FT/S/D) BUOY 41004 0350 82 83 90/ 6/ 8 1017.8R 3/ 6 2/120/ 6 BUOY 41008 0350 83 85 70/ 6/ 8 1017.7F 3/ 8 3/110/ 8 FOLLY BEACH CMAN 0400 81 90/ 6/ 7 1018.8S CAPERS NEARSHORE 0308 82 84 110/ 8/ 12 1018.4R FRIPP NEARSHORE 0308 82 86 120/ 10/ 14 1018.0R STATION/POSITION TIME TEMP WIND PRES WAVE SWELL AIR SEA DIR/SP/G HT/PER HT/PER/DIR (UTC) (F) (DEG/KT/KT) (MB) (FT/S) (FT/S/D) 5E ST. MARYS GA 0301 85 N/A 3/ 8 FRYING PAN BUOY 0300 82 85 90/ 10/ 12 1018.0R BUOY 41025 0350 82 85 160/ 6/ 8 1018.8R 2/ 8 2/ 80/ 8 CAPE LOOKOUT NC 0400 81 120/ 5/ 6 1018.4R BUOY 41002 0350 82 84 90/ 12/ 14 1016.8R 5/ 9 3/120/ 9 BUOY 41010 NOT AVBL ST AUGUSTINE FL 0400 82 83 60/ 12/ 12 1017.9F $$

USA.gov is the U.S. government's official web portal to all federal, state and local government web resources and services.